www.pogodaiklimat.ru

Погода и климат >> Архив погоды >> Таиланд >> Satun


ПОГОДА в Satun

  • Прогноз погоды в Satun
  • Монитор погоды в Satun
  • Климат города

АРХИВ ПОГОДЫ в Satun

Время (UTC), дата Ветер
(напр.,м/с)
 
Видим.   Явления Облачность Т
(С)
Тd
(С)
f
(%)
Тe
(С)
Тes
(С)
Комфортность P
(гПа)
Po
(гПа)
Тmin
(С)
Tmax
(С)
R
(мм)
R24
(мм)
S
(см)
21 12.10 штиль 0 10 км 9/3 600 м
[Cu med, cong Ac lent Cs]
+25.1 +24.1 94 +35 +35 очень
душно
1007.3 1006.7
00 13.10 штиль 0 10 км 9/3 600 м
[Cu med, cong Ac lent Cs]
+25.3 +24.3 94 +35 +35 очень
душно
1008.2 1007.6 +24.7 0.1
03 13.10 ЮЗ 3 6000 м слабый дождь 9/5 600 м
[Sc Ac As Cs]
+26.2 +24.2 89 +36 +40 очень
душно
1008.8 1008.1 6
06 13.10 штиль 0 5000 м слабый дождь 10/5 600 м
[Sc Ac As Cs]
+26.0 +24.6 92 +37 +43 очень
душно
1008.2 1007.5 3
09 13.10 З 4 10 км {дождь} 9/5 600 м
[Sc Ac lent Cs]
+29.0 +24.1 75 +40 +42 очень
душно
1006.5 1005.8 0.4
12 13.10 штиль 0 10 км {дождь} 8/3 600 м
[Cu med, cong Ac lent Cs]
+27.4 +24.5 84 +39 +39 очень
душно
1007.6 1006.9 +29.5 9
15 13.10 штиль 0 6000 м слабый дождь 10/5 600 м
[Sc Ac As Cs]
+24.4 +23.1 92 +32 +32 очень
душно
1010.9 1010.2 2
18 13.10 штиль 0 6000 м слабый дождь 10/5 600 м
[Sc Ac As Cs]
+24.0 +22.5 91 +31 +31 очень
душно
1008.6 1007.9 3
21 13.10 штиль 0 10 км {дождь} 10/5 600 м
[Sc Ac As Cs]
+23.8 +22.9 95 +32 +32 очень
душно
1007.1 1006.4 3
00 14.10 штиль 0 10 км {дождь} 9/4 600 м
[Sc Ac lent Cs]
+24.2 +23.5 96 +33 +33 очень
душно
1007.9 1007.2 +22.7 17
03 14.10 штиль 0 10 км 8/3 600 м
[Cu med, cong Cs]
+27.4 +24.5 84 +39 +50 очень
душно
1009.8 1009.1
06 14.10 З 6 10 км 8/3 600 м
[Cu med, cong Cs]
+32.2 +23.6 61 +44 +48 опасность
перегрева
1007.9 1007.2
09 14.10 З 5 10 км 6/3 600 м
[Cu med, cong Cs]
+31.2 +22.9 61 +41 +43 опасность
перегрева
1006.1 1005.4
12 14.10 штиль 0 10 км {дождь} 9/3 600 м
[Cu med, cong Ac lent Cs]
+27.0 +24.1 84 +37 +37 очень
душно
1008.2 1007.5 +33.0 0.2
15 14.10 штиль 0 10 км 9/3 600 м
[Cu med, cong Ac lent Cs]
+25.7 +24.2 91 +36 +36 очень
душно
1009.8 1009.1
18 14.10 штиль 0 10 км в посл. час дождь 8/3 600 м
[Cu med, cong Ac lent Cs]
+25.0 +23.5 91 +34 +34 очень
душно
1008.8 1008.1 0.2
21 14.10 штиль 0 10 км 8/3 600 м
[Cu med, cong Ac lent Cs]
+24.4 +23.5 95 +33 +33 очень
душно
1007.5 1006.8
00 15.10 штиль 0 10 км 8/3 600 м
[Cu med, cong Ac lent Cs]
+24.7 +23.7 94 +34 +34 очень
душно
1008.3 1007.6 +22.8 0.4
03 15.10 штиль 0 10 км 8/3 600 м
[Cu med, cong Ac lent Cs]
+31.3 +24.5 67 +44 +52 опасность
перегрева
1009.7 1009.0
06 15.10 З 5 10 км 8/3 600 м
[Cu med, cong Ac lent Cs]
+32.4 +22.6 56 +42 +47 опасность
перегрева
1008.8 1008.1
09 15.10 штиль 0 10 км 9/4 600 м
[Cu Sc Ac lent Cs]
+30.4 +22.8 64 +40 +43 очень
душно
1007.5 1006.8
12 15.10 штиль 0 10 км 8/3 600 м
[Cu med, cong Ac lent Cs]
+28.5 +24.2 78 +40 +40 очень
душно
1008.6 1007.9 +32.9
15 15.10 штиль 0 10 км 8/3 600 м
[Cu med, cong Ac lent Cs]
+27.1 +24.8 87 +39 +39 очень
душно
1010.2 1009.6
18 15.10 штиль 0 10 км 9/3 600 м
[Cu med, cong Ac lent Cs]
+26.0 +24.6 92 +37 +37 очень
душно
1009.4 1008.7
21 15.10 штиль 0 10 км 9/3 600 м
[Cu med, cong Ac lent Cs]
+25.7 +24.2 91 +36 +36 очень
душно
1008.4 1007.7
00 16.10 штиль 0 10 км 9/3 600 м
[Cu med, cong Ac lent Cs]
+25.5 +24.3 93 +35 +36 очень
душно
1009.4 1008.8 +25.0
03 16.10 штиль 0 10 км 9/4 600 м
[Cu Sc Ac lent Cs]
+30.2 +25.2 75 +44 +50 опасность
перегрева
1010.4 1009.7
06 16.10 З 4 10 км 8/3 600 м
[Cu med, cong Ac lent Cs]
+31.8 +24.5 65 +44 +50 опасность
перегрева
1008.6 1007.9
09 16.10 З 5 10 км 8/3 600 м
[Cu med, cong Ac lent Cs]
+31.4 +24.4 66 +44 +45 опасность
перегрева
1007.1 1006.4
12 16.10 штиль 0 10 км 8/3 600 м
[Cu med, cong Ac lent Cs]
+28.7 +24.8 79 +41 +41 опасность
перегрева
1008.3 1007.7 +32.9
15 16.10 штиль 0 10 км 8/3 600 м
[Cu med, cong Ac lent Cs]
+26.0 +24.3 90 +36 +36 очень
душно
1010.0 1009.4
18 16.10 штиль 0 10 км 6/1 600 м
[Cu med, cong Cs]
+25.0 +23.5 91 +34 +34 очень
душно
1009.2 1008.5
21 16.10 штиль 0 10 км 5/1 600 м
[Cu med, cong Cs]
+24.5 +23.3 93 +33 +33 очень
душно
1007.9 1007.2
00 17.10 штиль 0 8000 м дымка 5/1 600 м
[Cu med, cong Cs]
+24.1 +23.2 95 +32 +33 очень
душно
1009.0 1008.3 +23.5
03 17.10 штиль 0 10 км 6/3 600 м
[Cu med, cong Cs]
+31.8 +23.6 62 +43 +54 опасность
перегрева
1010.4 1009.7
06 17.10 штиль 0 10 км 8/3 600 м
[Cu med, cong Cs]
+33.0 +21.1 50 +41 +56 опасность
перегрева
1008.3 1007.6
09 17.10 штиль 0 10 км 8/3 600 м
[Cu med, cong Cs]
+32.5 +22.3 55 +42 +47 опасность
перегрева
1006.0 1005.3
12 17.10 штиль 0 10 км 8/3 600 м
[Cu med, cong Cs]
+28.5 +24.9 81 +41 +41 опасность
перегрева
1007.8 1007.1 +33.2
15 17.10 штиль 0 10 км 6/3 600 м
[Cu med, cong Cs]
+25.5 +24.0 91 +35 +35 очень
душно
1010.1 1009.4
18 17.10 штиль 0 10 км 6/3 600 м
[Cu med, cong Cs]
+25.0 +24.0 94 +34 +34 очень
душно
1009.5 1008.9
21 17.10 штиль 0 10 км 6/3 600 м
[Cu med, cong Cs]
+23.7 +22.5 93 +31 +31 очень
душно
1008.0 1007.3
00 18.10 штиль 0 10 км 6/3 600 м
[Cu med, cong Cs]
+23.8 +22.5 92 +31 +31 очень
душно
1009.6 1009.0 +22.3
03 18.10 штиль 0 10 км 5/1 600 м
[Cu med, cong Cs]
+32.0 +23.0 59 +42 +57 опасность
перегрева
1011.1 1010.4
06 18.10 штиль 0 10 км 4/1 600 м
[Cu med, cong Cs]
+34.0 +21.0 47 +41 +63 опасность
перегрева
1008.6 1007.9
09 18.10 штиль 0 10 км 4/1 600 м
[Cu med, cong Cs]
+34.1 +22.3 50 +43 +50 опасность
перегрева
1007.0 1006.3
12 18.10 штиль 0 10 км 5/1 600 м
[Cu med, cong Cs]
+29.7 +23.9 71 +41 +41 опасность
перегрева
1008.8 1008.1 +35.1
15 18.10 штиль 0 10 км 5/1 600 м
[Cu med, cong Cs]
+26.7 +23.5 83 +36 +36 очень
душно
1010.9 1010.2
18 18.10 штиль 0 10 км 4/1 600 м
[Cu hum Cs]
+25.7 +23.9 90 +35 +35 очень
душно
1010.5 1009.8
21 18.10 штиль 0 10 км 4/1 600 м
[Cu hum Cs]
+25.4 +23.9 91 +35 +35 очень
душно
1009.5 1008.8
00 19.10 штиль 0 10 км 6/3 600 м
[Cu med, cong Ac lent Cs]
+25.4 +24.4 94 +35 +36 очень
душно
1011.0 1010.3 +24.2
03 19.10 штиль 0 10 км 6/3 600 м
[Cu med, cong Cs]
+32.3 +24.2 62 +44 +56 опасность
перегрева
1011.7 1011.0
06 19.10 ЮЗ 4 10 км 8/3 600 м
[Cu med, cong Cs]
+33.8 +24.1 57 +46 +54 опасность
перегрева
1009.2 1008.6
09 19.10 штиль 0 10 км 5/1 600 м
[Cu med, cong Cs]
+33.6 +23.2 55 +44 +51 опасность
перегрева
1007.9 1007.2
12 19.10 штиль 0 10 км 6/1 600 м
[Cu med, cong Ac trans Cs]
+29.3 +24.9 77 +42 +42 опасность
перегрева
1009.3 1008.7 +34.6
15 19.10 штиль 0 10 км 5/1 600 м
[Cu med, cong Cs]
+28.0 +25.1 84 +40 +40 очень
душно
1011.8 1011.2

 

Местоположение метеостанции Satun (Таиланд): широта 6.65 долгота 100.08 высота над уровнем моря 6 м.

В архиве по умолчанию представлена погода в Satun за последнюю неделю. Архивные данные за месяц целиком и за предыдущие месяцы, начиная с января 2011 года, Вы можете получить, выбрав интересующий диапазон дат из раскрывающегося списка и нажав кнопку "Ввод!".

Внимание! Время в таблицах - всемирное. Для получения местного времени необходимо прибавить поправку, которая в Satun равна 7 ч.

Смотрите также архив погоды в соседних городах и на ближайших метеорологических станциях:

Погода в Sa-dao (Таиланд) (39 км)
Погода в Hat Yai (Таиланд) (49 км)
Погода в Langkawi (Малайзия) (53 км)
Погода в Alor Star (Малайзия) (61 км)
Погода в Songkhla (Таиланд) (85 км)
Погода в Phatthalung Agromet (Таиланд) (104 км)
Погода в Trang (Таиланд) (109 км)
Погода в Pattani (Таиланд) (119 км)
Погода в Yala Agromet (Таиланд) (133 км)
Погода в Butterworth Air Base (Малайзия) (135 км)

Пояснения к столбцам:

Ветер - указаны скорость ветра в м/с - средняя за 10 мин, порывы в срок и между сроками (в фигурных скобках) и направление, откуда дует ветер: С - северный, СВ - северо-восточный, В - восточный, ЮВ - юго-восточный, Ю - южный, ЮЗ - юго-западный, З - западный, СЗ - северо-западный.
Видимость - горизонтальная дальность видимости в метрах или километрах. При видимости от 1 до 10 км при отсутствии осадков обычно наблюдается дымка, при ухудшении видимости до 1 км и менее - туман. В сухую погоду видимость может ухудшаться дымом, пылью или мглою.
Явления - указаны атмосферные явления, наблюдавшиеся в срок или в последний час перед сроком; фигурными скобками обозначены явления, наблюдавшиеся между сроками (за 1-3 часа до срока); квадратными скобками обозначены град или гололедные отложения с указанием их диаметра в мм.
Облачность - указаны через наклонную черту общая и нижняя облачность в баллах и высота нижней границы облаков в метрах; квадратными скобками обозначены формы облаков: Ci - перистые, Cs - перисто-слоистые, Cc - перисто-кучевые, Ac - высококучевые, As - высокослоистые, Sc - слоисто-кучевые, Ns - слоисто-дождевые, Cu - кучевые, Cb - кучево-дождевые. Подробнее классификацию облаков см. в Атласе облаков (PDF).
T - Температура воздуха - температура, измеренная на высоте 2 м над землей.
Td - Температура точки росы - температура, при понижении до которой содержащийся в воздухе водяной пар достигнет насыщения.
f - Относительная влажность воздуха - влажноcть воздуха, измеренная на высоте 2 м над землей.
Te - Эффективная температура - температура, которую ощущает одетый по сезону человек в тени. Характеристика душности погоды. При расчете учитывается влияние влажности воздуха и скорости ветра на теплоощущения человека.
Tes - Эффективная температура на солнце - температура, которую ощущает человек, с поправкой на солнечный нагрев. Характеристика знойности погоды. Зависит от высоты солнца над горизонтом, облачности и скорости ветра. Ночью, в пасмурную погоду, а также при ветре 12 м/с и более поправка равна нулю.
P - Атмосферное давление - приведенное к уровню моря атмосферное давление.
Po - Атмосферное давление - измеренное на уровне метеостанции атмосферное давление.
Tmin - Минимальная температура - минимум температуры воздуха на высоте 2 м над землей.
Tmax - Максимальная температура - максимум температуры воздуха на высоте 2 м над землей.
R - Количество осадков - Количество выпавших осадков за период времени, мм. При наведении курсора мыши на число - период времени, за который выпало указанное количество осадков.
R24 - Количество осадков - Количество выпавших осадков за 24 часа, мм.
S - Снежный покров - Высота снежного покрова, см. При наведении курсора мыши на число - состояние снежного покрова и степень покрытия местности в баллах.